Tracking 30970 objects as of 3-Jul-2025
HD Live streaming from Space Station
objects crossing your sky now

BREEZE-M R/B

Track BREEZE-M R/B now!


NORAD ID: 28656
Int'l Code: 2004-008C
Perigee: 4,146.0 km
Apogee: 36,812.5 km
Inclination: 13.7 °
Period: 729.8 minutes
Semi major axis: 26850 km
RCS: 6.2799 m2 (large)
Launch date: March 15, 2004
Source: Commonwealth of Independent States (former USSR) (CIS)
Launch site: TYURATAM MISSILE AND SPACE COMPLEX (TTMTR)

Note: This is a ROCKET BODY
Your satellite tracking list
Your tracking list is empty




NASA's NSSDC Master Catalog

Two Line Element Set (TLE):
1 28656U 04008C   25182.30415891 -.00000589  00000-0  00000-0 0  9991
2 28656  13.7281 331.4990 6083079 278.2527  21.1514  1.97324289147333
Source of the keplerian elements: AFSPC